Highgate, VT

7:32 PM EDT on September 20, 2019 (GMT -0400)
Franklin County State

Weather History for KFSO - August, 2019

Change the Weather History Date:

Wednesday, August 21, 2019

  Actual Average (KPBG) Record (KPBG)
Temperature  
Mean Temperature 70 °F -  
Max Temperature 78 °F 75 °F 95 °F (1955)
Min Temperature 62 °F 54 °F 41 °F (2007)
Cooling Degree Days 4    
Growing Degree Days 20 (Base 50)    
Moisture  
Dew Point 66 °F    
Average Humidity 87    
Maximum Humidity 96    
Minimum Humidity 70    
Precipitation  
Precipitation 0.00 in - - ()
Sea Level Pressure  
Sea Level Pressure 29.87 in    
Wind  
Wind Speed 4 mph (South)    
Max Wind Speed 12 mph    
Max Gust Speed 20 mph    
Visibility 10 miles    
Events Rain    
Averages and records for this station are not official NWS values.
T = Trace of Precipitation, MM = Missing Value Source: NWS Daily Summary

Daily Weather History Graph

Daily Weather History Graph

Search for Another Location

Airport or City:

Astronomy

Aug. 21, 2019 Rise Set
Actual Time 6:01 AM EDT 7:49 PM EDT
Civil Twilight 5:29 AM EDT 8:20 PM EDT
Nautical Twilight 4:51 AM EDT 8:58 PM EDT
Astronomical Twilight 4:09 AM EDT 9:39 PM EDT
Moon 10:50 PM EDT (8/21) 11:48 AM EDT (8/21)
Length of Visible Light 14h 50m
Length of Day
13h 48m
Waning Gibbous, 69% of the Moon is Illuminated
Aug 21
Waning Gibbous
Aug 23
Last Quarter
Aug 30
New
Sep 5
First Quarter
Sep 14
Full

Hourly Weather History & Observations

Time (EDT) Temp. Dew Point Humidity Pressure Visibility Wind Dir Wind Speed Gust Speed Precip Events Conditions
12:16 AM 67.6 °F 60.4 °F 78% 29.99 in 10.0 mi South 5.8 mph - N/A   Clear
12:36 AM 68.2 °F 60.1 °F 75% 29.98 in 10.0 mi South 4.6 mph - N/A   Clear
12:55 AM 69.1 °F 59.4 °F 71% 29.98 in 10.0 mi South 4.6 mph - N/A   Clear
1:16 AM 68.9 °F 59.2 °F 71% 29.97 in 10.0 mi South 4.6 mph - N/A   Clear
1:36 AM 68.2 °F 59.2 °F 73% 29.97 in 10.0 mi South 5.8 mph - N/A   Clear
1:55 AM 64.8 °F 60.3 °F 85% 29.97 in 10.0 mi Calm Calm - N/A   Clear
2:16 AM 64.2 °F 60.8 °F 89% 29.95 in 10.0 mi SE 3.5 mph - N/A   Clear
2:35 AM 63.5 °F 60.4 °F 90% 29.95 in 10.0 mi Calm Calm - N/A   Clear
2:55 AM 63.5 °F 59.7 °F 87% 29.95 in 10.0 mi Calm Calm - N/A   Clear
3:16 AM 62.6 °F 59.9 °F 91% 29.95 in 10.0 mi SSE 3.5 mph - N/A   Clear
3:36 AM 63.5 °F 60.1 °F 89% 29.95 in 10.0 mi SSE 3.5 mph - N/A   Clear
3:56 AM 64.4 °F 60.1 °F 86% 29.94 in 10.0 mi Calm Calm - N/A   Clear
4:15 AM 65.5 °F 59.5 °F 81% 29.94 in 10.0 mi SSE 3.5 mph - N/A   Clear
4:36 AM 64.0 °F 60.1 °F 87% 29.93 in 10.0 mi Calm Calm - N/A   Clear
4:55 AM 64.4 °F 60.1 °F 86% 29.93 in 10.0 mi SSE 3.5 mph - N/A   Clear
5:16 AM 65.3 °F 60.1 °F 83% 29.92 in 10.0 mi SSE 3.5 mph - N/A   Clear
5:35 AM 64.4 °F 60.3 °F 86% 29.91 in 10.0 mi SSE 3.5 mph - N/A   Clear
5:56 AM 64.4 °F 60.3 °F 86% 29.90 in 10.0 mi SE 3.5 mph - N/A   Clear
6:15 AM 64.4 °F 60.4 °F 87% 29.90 in 10.0 mi SE 3.5 mph - N/A   Clear
6:35 AM 64.6 °F 60.8 °F 88% 29.90 in 10.0 mi SSE 3.5 mph - N/A   Clear
6:55 AM 66.4 °F 61.7 °F 85% 29.90 in 10.0 mi South 3.5 mph - N/A   Clear
7:16 AM 68.2 °F 61.7 °F 80% 29.90 in 10.0 mi South 3.5 mph - N/A   Scattered Clouds
7:35 AM 68.9 °F 62.6 °F 80% 29.89 in 10.0 mi South 3.5 mph - N/A   Scattered Clouds
7:56 AM 69.8 °F 64.0 °F 82% 29.89 in 10.0 mi SSE 5.8 mph - N/A   Clear
8:15 AM 70.9 °F 64.4 °F 80% 29.89 in 10.0 mi South 5.8 mph - N/A   Clear
8:36 AM 72.5 °F 64.6 °F 76% 29.89 in 10.0 mi South 4.6 mph - N/A   Clear
8:56 AM 73.6 °F 65.3 °F 75% 29.89 in 10.0 mi SSW 4.6 mph - N/A   Scattered Clouds
9:15 AM 74.5 °F 65.3 °F 73% 29.88 in 10.0 mi South 6.9 mph - N/A   Scattered Clouds
9:36 AM 76.3 °F 65.8 °F 70% 29.87 in 10.0 mi South 5.8 mph - N/A   Clear
9:55 AM 75.7 °F 66.4 °F 73% 29.87 in 10.0 mi South 6.9 mph - N/A   Clear
10:15 AM 76.1 °F 67.1 °F 74% 29.86 in 10.0 mi South 8.1 mph - N/A   Scattered Clouds
10:35 AM 76.5 °F 68.0 °F 75% 29.86 in 10.0 mi South 5.8 mph - N/A   Mostly Cloudy
10:56 AM 76.1 °F 68.4 °F 77% 29.87 in 10.0 mi South 5.8 mph - N/A   Overcast
11:15 AM 76.5 °F 69.1 °F 78% 29.86 in 10.0 mi SSW 6.9 mph - N/A   Mostly Cloudy
11:35 AM 75.4 °F 68.9 °F 80% 29.89 in 10.0 mi West 6.9 mph 19.6 mph N/A   Mostly Cloudy
11:56 AM 72.7 °F 69.8 °F 91% 29.91 in 3.0 mi SW 8.1 mph - N/A Rain Heavy Rain
12:15 PM 71.4 °F 69.8 °F 95% 29.91 in 1.0 mi SSW 11.5 mph 19.6 mph N/A Rain Heavy Rain
12:36 PM 70.5 °F 69.1 °F 95% 29.90 in 3.0 mi South 4.6 mph - N/A Rain Heavy Rain
12:55 PM 71.1 °F 69.8 °F 96% 29.88 in 5.0 mi SSE 6.9 mph - N/A Rain Rain
1:16 PM 71.8 °F 70.7 °F 96% 29.87 in 10.0 mi Calm Calm - N/A Rain Rain
1:35 PM 72.7 °F 71.2 °F 95% 29.85 in 10.0 mi SE 6.9 mph - N/A   Light Drizzle
1:55 PM 72.9 °F 71.2 °F 95% 29.86 in 10.0 mi SE 6.9 mph - N/A   Clear
2:15 PM 72.9 °F 70.9 °F 93% 29.87 in 10.0 mi SW 3.5 mph - N/A Rain Light Rain
2:35 PM 72.5 °F 70.7 °F 94% 29.87 in 10.0 mi Calm Calm - N/A Rain Light Rain
2:56 PM 72.5 °F 71.1 °F 95% 29.87 in 10.0 mi Calm Calm - N/A Rain Rain
3:15 PM 72.7 °F 71.2 °F 95% 29.87 in 10.0 mi South 3.5 mph - N/A   Drizzle
3:36 PM 72.9 °F 71.6 °F 96% 29.87 in 10.0 mi Calm Calm - N/A Rain Rain
3:55 PM 73.0 °F 71.6 °F 95% 29.87 in 10.0 mi SSE 3.5 mph - N/A Rain Rain
4:16 PM 73.4 °F 71.6 °F 94% 29.84 in 10.0 mi SE 5.8 mph - N/A   Light Drizzle
4:35 PM 73.8 °F 71.2 °F 92% 29.84 in 10.0 mi SE 5.8 mph - N/A   Scattered Clouds
4:56 PM 75.0 °F 71.6 °F 89% 29.82 in 10.0 mi SE 4.6 mph - N/A   Clear
5:16 PM 77.0 °F 71.4 °F 83% 29.82 in 10.0 mi SE 8.1 mph - N/A   Clear
5:36 PM 77.2 °F 70.3 °F 79% 29.82 in 10.0 mi SSE 8.1 mph - N/A   Scattered Clouds
5:56 PM 77.9 °F 70.9 °F 79% 29.82 in 10.0 mi SSE 6.9 mph - N/A   Scattered Clouds
6:16 PM 77.4 °F 70.5 °F 79% 29.82 in 10.0 mi South 4.6 mph - N/A   Clear
6:36 PM 77.4 °F 70.9 °F 80% 29.81 in 10.0 mi South 4.6 mph - N/A   Scattered Clouds
6:55 PM 76.3 °F 70.2 °F 81% 29.81 in 10.0 mi South 3.5 mph - N/A   Clear
7:15 PM 75.2 °F 70.2 °F 84% 29.80 in 10.0 mi South 3.5 mph - N/A   Clear
7:35 PM 73.6 °F 70.3 °F 90% 29.80 in 10.0 mi South 3.5 mph - N/A   Clear
7:56 PM 72.5 °F 70.2 °F 92% 29.80 in 10.0 mi South 3.5 mph - N/A   Clear
8:15 PM 71.6 °F 69.8 °F 94% 29.79 in 10.0 mi South 3.5 mph - N/A   Clear
8:35 PM 71.2 °F 69.8 °F 95% 29.80 in 10.0 mi Calm Calm - N/A   Clear
8:55 PM 70.3 °F 69.1 °F 96% 29.80 in 10.0 mi South 3.5 mph - N/A   Clear
9:15 PM 70.2 °F 68.9 °F 96% 29.80 in 10.0 mi Calm Calm - N/A   Clear
9:35 PM 69.8 °F 68.5 °F 96% 29.79 in 10.0 mi SSE 3.5 mph - N/A   Clear
9:55 PM 69.3 °F 68.0 °F 96% 29.79 in 10.0 mi Calm Calm - N/A   Clear
10:16 PM 68.9 °F 67.6 °F 96% 29.79 in 10.0 mi South 4.6 mph - N/A   Clear
10:35 PM 69.1 °F 68.0 °F 96% 29.79 in 10.0 mi South 4.6 mph - N/A   Clear
10:55 PM 69.3 °F 68.0 °F 96% 29.78 in 10.0 mi South 3.5 mph - N/A   Clear
11:15 PM 68.9 °F 67.8 °F 96% 29.77 in 10.0 mi South 4.6 mph - N/A   Clear
11:36 PM 69.8 °F 68.5 °F 96% 29.75 in 10.0 mi South 5.8 mph - N/A   Clear
11:55 PM 70.2 °F 68.9 °F 96% 29.76 in 10.0 mi South 5.8 mph - N/A   Clear